Weather History for KORH - September, 2014

Change the Weather History Date:

Tuesday, September 16, 2014

  Actual Average Record
Temperature  
Mean Temperature 56 °F 61 °F  
Max Temperature 63 °F 70 °F 92 °F (1939)
Min Temperature 49 °F 53 °F 36 °F (1899)
Degree Days  
Heating Degree Days 9 5  
Month to date heating degree days 59 51  
Since 1 July heating degree days 79 90  
Cooling Degree Days 0 1  
Month to date cooling degree days 52 32  
Year to date cooling degree days 414 458  
Growing Degree Days 6 (Base 50)    
Moisture  
Dew Point 49 °F    
Average Humidity 80    
Maximum Humidity 93    
Minimum Humidity 67    
Precipitation  
Precipitation T in 0.13 in 4.67 in (1933)
Month to date precipitation 1.30 1.90  
Year to date precipitation 36.33 33.26  
Sea Level Pressure  
Sea Level Pressure 30.02 in    
Wind  
Wind Speed 6 mph (WSW)    
Max Wind Speed 13 mph    
Max Gust Speed 17 mph    
Visibility 10 miles    
Events Rain    
T = Trace of Precipitation, MM = Missing Value Source: NWS Daily Summary

Daily Weather History Graph

Daily Weather History Graph

Search for Another Location

Airport or City:

Trip Planner

Search our weather history database for the weather conditions in past years. The results will help you decide how hot, cold, wet, or windy it might be!

Date:

Astronomy

Sep. 16, 2014 Rise Set
Actual Time 6:28 AM EDT 6:55 PM EDT
Civil Twilight 6:00 AM EDT 7:23 PM EDT
Nautical Twilight 5:27 AM EDT 7:56 PM EDT
Astronomical Twilight 4:53 AM EDT 8:30 PM EDT
Moon No Moon Rise 2:21 PM EDT (9/16)
Length of Visible Light 13h 23m
Length of Day
12h 26m
Last Quarter, 44% of the Moon is Illuminated
Sep 16
Last Quarter
Sep 24
New
Oct 1
First Quarter
Oct 8
Full
Oct 15
Last Quarter

Hourly Weather History & Observations

Time (EDT) Temp. Dew Point Humidity Pressure Visibility Wind Dir Wind Speed Gust Speed Precip Events Conditions
12:54 AM 51.1 °F 45.0 °F 80% 30.11 in 10.0 mi Calm Calm - N/A   Clear
1:54 AM 51.1 °F 45.0 °F 80% 30.09 in 10.0 mi SSW 3.5 mph - N/A   Clear
2:54 AM 50.0 °F 46.0 °F 86% 30.08 in 10.0 mi SW 4.6 mph - N/A   Clear
3:54 AM 51.1 °F 45.0 °F 80% 30.06 in 10.0 mi SW 4.6 mph - N/A   Clear
4:54 AM 52.0 °F 45.0 °F 77% 30.06 in 10.0 mi WSW 3.5 mph - N/A   Overcast
5:54 AM 52.0 °F 45.0 °F 77% 30.06 in 10.0 mi SW 3.5 mph - N/A   Overcast
6:54 AM 53.1 °F 46.0 °F 77% 30.05 in 10.0 mi Calm Calm - N/A   Overcast
7:29 AM 53.1 °F 48.0 °F 83% 30.03 in 10.0 mi Calm Calm - N/A   Overcast
7:36 AM 53.1 °F 48.0 °F 83% 30.03 in 10.0 mi Calm Calm - N/A   Overcast
7:54 AM 54.0 °F 46.0 °F 75% 30.04 in 10.0 mi Calm Calm - N/A   Overcast
8:24 AM 55.0 °F 46.9 °F 74% 30.02 in 10.0 mi Calm Calm - N/A   Overcast
8:51 AM 55.4 °F 48.2 °F 77% 30.03 in 10.0 mi Calm Calm - 0.00 in Rain Light Rain
8:54 AM 55.0 °F 48.9 °F 80% 30.04 in 10.0 mi SW 3.5 mph - 0.00 in Rain Light Rain
9:54 AM 55.9 °F 50.0 °F 80% 30.04 in 10.0 mi SW 4.6 mph - 0.00 in   Overcast
10:28 AM 55.4 °F 51.8 °F 88% 30.03 in 10.0 mi West 8.1 mph - N/A Rain Light Rain
10:54 AM 55.0 °F 51.1 °F 86% 30.04 in 10.0 mi WSW 6.9 mph - 0.00 in Rain Light Rain
11:30 AM 55.9 °F 52.0 °F 87% 30.01 in 10.0 mi SW 6.9 mph - 0.00 in Rain Light Rain
11:54 AM 55.9 °F 51.1 °F 84% 30.02 in 10.0 mi WSW 6.9 mph - 0.00 in   Overcast
12:52 PM 59.0 °F 51.8 °F 77% 30.00 in 10.0 mi West 8.1 mph - N/A   Overcast
12:54 PM 59.0 °F 51.1 °F 75% 30.01 in 10.0 mi West 8.1 mph - N/A   Overcast
1:02 PM 59.0 °F 51.1 °F 75% 30.00 in 10.0 mi WSW 10.4 mph - N/A   Overcast
1:35 PM 60.1 °F 51.1 °F 72% 29.98 in 10.0 mi West 9.2 mph - N/A   Overcast
1:54 PM 60.1 °F 52.0 °F 75% 29.99 in 10.0 mi West 9.2 mph - N/A   Overcast
2:20 PM 60.1 °F 51.1 °F 72% 29.98 in 10.0 mi West 10.4 mph - N/A   Overcast
2:54 PM 63.0 °F 51.1 °F 65% 29.97 in 10.0 mi WNW 10.4 mph - N/A   Scattered Clouds
3:54 PM 61.0 °F 50.0 °F 67% 29.99 in 10.0 mi West 8.1 mph - N/A   Overcast
4:54 PM 60.1 °F 51.1 °F 72% 29.98 in 10.0 mi West 5.8 mph - N/A   Overcast
5:54 PM 60.1 °F 52.0 °F 75% 29.99 in 10.0 mi West 3.5 mph - N/A   Overcast
6:54 PM 59.0 °F 52.0 °F 78% 29.99 in 10.0 mi West 4.6 mph - N/A   Overcast
7:54 PM 57.0 °F 53.1 °F 87% 30.00 in 10.0 mi SSW 4.6 mph - N/A   Overcast
8:54 PM 57.0 °F 52.0 °F 83% 30.01 in 10.0 mi West 8.1 mph - N/A   Overcast
9:54 PM 55.4 °F 51.8 °F 88% 30.00 in 10.0 mi West 6.9 mph - N/A   Mostly Cloudy
10:54 PM 55.0 °F 52.0 °F 89% 30.01 in 10.0 mi West 8.1 mph - N/A   Clear